Location: Aldenham
(51.6667°N, 0.3500°W)
Time: 18:26:39
(UTC+00:00)

A-11 Canister half - Pass Details

Date: 16 February 2026
Orbit: 1512 x 1687 km, 47.2° (Epoch: 8 March)

Event Time Altitude Azimuth Distance (km) Brightness Sun altitude
Rises 21:11:12 0° 219° (SW) 4,932 11.8 -35.8°
Reaches altitude 10° 21:14:36 10° 213° (SSW) 3,940 11.1 -36.3°
Enters shadow 21:18:05 23° 201° (SSW) 3,020 10.4 -36.7°
Maximum altitude 21:23:50 42° 147° (SSE) 2,219 - -37.5°
Drops below altitude 10° 21:32:52 10° 81° (E) 3,860 - -38.6°
Sets 21:36:09 0° 75° (ENE) 4,824 - -39.1°
